[[{"header":{"parameterUnit":"m.s-1","parameterCategory":1,"la1":30.2991,"la2":30.254,"lo1":-89.0895,"lo2":-89.0444,"dy":0.0017,"dx":0.0017,"nx":28,"ny":28,"refTime":"2024-07-24T03:00:00:Z","depth":0,"parameterNumber":2,"parameterNumberName":"U-component_of_WINDS"},"data":[0,0,0,0,0,0,0,0,0,0,0,0,0,0,0,0,0,0,0,0,0,0,0,0,0,0,0,0,0,0,0,0,0,0,0,0,0,0,0,0,0,0,0,0,0,0,0,0,0,0,0,0,0,0,0,0,0,0,-0.2725,-0.2724,0,-0.2636,-0.2635,-0.2634,-0.2578,-0.2577,-0.2577,-0.2577,-0.2484,-0.2482,-0.2479,0,0,0,0,0,0,0,0,0,0,0,0,0,-0.2847,-0.2845,-0.2725,-0.2724,-0.2723,-0.2636,-0.2635,-0.2634,-0.2578,-0.2577,-0.2577,-0.2577,-0.2484,-0.2482,-0.2479,0,0,0,0,0,0,0,0,0,0,0,0,0,-0.278,-0.2844,-0.2726,-0.2685,-0.268,-0.2636,-0.2635,-0.2633,-0.2578,-0.2577,-0.2577,-0.2577,-0.2485,-0.2482,-0.2479,-0.2468,0,0,-0.2469,-0.2467,0,0,0,0,0,0,0,0,-0.2784,-0.2775,-0.2692,-0.2688,-0.2682,-0.2618,-0.2644,-0.2578,-0.2578,-0.2617,-0.2577,-0.2576,-0.2529,-0.2522,-0.2506,-0.2463,-0.2459,-0.2468,-0.2466,-0.2465,-0.2464,0,0,0,0,0,0,0,-0.2788,-0.2779,-0.269,-0.2691,-0.2685,-0.2671,-0.2661,-0.2631,-0.2576,-0.2613,-0.2609,-0.2599,-0.2526,-0.2509,-0.2503,-0.2458,-0.2469,-0.2466,-0.2464,-0.2462,-0.2403,-0.2403,0,0,0,0,0,0,-0.28,-0.2783,-0.2693,-0.2687,-0.2733,-0.2669,-0.2658,-0.2639,-0.2576,-0.2567,-0.26,-0.2597,-0.2515,-0.2507,-0.25,-0.2483,-0.2465,-0.2462,-0.246,-0.2403,-0.2403,-0.2404,0,0,0,0,0,0,-0.2802,-0.2792,-0.2696,-0.2734,-0.2721,-0.2667,-0.2647,-0.2637,-0.2621,-0.2566,-0.2556,-0.2593,-0.2514,-0.2504,-0.2476,-0.2479,-0.2461,-0.2458,-0.2402,-0.2403,-0.2403,-0.2449,0,0,0,0,0,0,-0.2806,-0.2793,-0.2789,-0.2734,-0.2719,-0.2675,-0.2647,-0.2636,-0.2615,-0.2611,-0.2557,-0.2548,-0.2513,-0.2482,-0.2473,-0.2474,-0.2455,-0.2402,-0.2402,-0.2403,-0.2447,-0.2452,-0.2455,0,0,0,0,0,-0.2811,-0.2805,-0.2789,-0.2778,-0.2712,-0.2675,-0.2666,-0.2627,-0.2616,-0.261,-0.2576,-0.2549,-0.248,-0.2479,-0.2469,-0.2469,-0.2401,-0.2402,-0.2403,-0.2446,-0.2451,-0.2455,0,0,0,0,0,0,-0.286,-0.2797,-0.2778,-0.2755,-0.2721,-0.2666,-0.2658,-0.2634,-0.2602,-0.2599,-0.2551,-0.254,-0.2517,-0.249,-0.249,-0.2456,-0.2438,-0.2437,-0.2474,-0.2478,-0.2482,-0.2488,-0.2452,0,0,0,0,0,-0.2868,-0.2844,-0.279,-0.2774,-0.2758,-0.2711,-0.2694,-0.2667,-0.2629,-0.2615,-0.2578,-0.2542,-0.2513,-0.2494,-0.2464,-0.2444,-0.2431,-0.2439,-0.2443,-0.2446,-0.2446,-0.2434,-0.2436,-0.2407,-0.2407,-0.2406,0,0,-0.2884,-0.2847,-0.2834,-0.2783,-0.2754,-0.2729,-0.2699,-0.2675,-0.2656,-0.2611,-0.2582,-0.2554,-0.2512,-0.2488,-0.2476,-0.2465,-0.2451,-0.2447,-0.245,-0.2448,-0.2435,-0.2438,-0.244,-0.2407,-0.2407,-0.2407,0,0,-0.2902,-0.2871,-0.2855,-0.2827,-0.2783,-0.2752,-0.2748,-0.2697,-0.2677,-0.2648,-0.2614,-0.2591,-0.2541,-0.2512,-0.2491,-0.2499,-0.2474,-0.2491,-0.251,-0.2499,-0.2502,-0.2503,-0.2506,-0.2508,-0.2491,-0.2491,-0.2491,0,-0.2927,-0.289,-0.2849,-0.2827,-0.2806,-0.2765,-0.2748,-0.2722,-0.2671,-0.2657,-0.2646,-0.2583,-0.2551,-0.2521,-0.2523,-0.2507,-0.2502,-0.2496,-0.2505,-0.2506,-0.2507,-0.251,-0.2511,-0.2493,-0.2493,-0.2493,-0.2492,0,-0.2923,-0.2898,-0.289,-0.2843,-0.282,-0.2801,-0.2758,-0.274,-0.2716,-0.2686,-0.2658,-0.2619,-0.258,-0.2571,-0.2546,-0.2537,-0.2532,-0.2514,-0.2495,-0.2513,-0.2514,-0.2515,-0.2496,-0.2496,-0.2495,-0.2494,0,0,-0.2967,-0.2899,-0.2897,-0.2875,-0.2825,-0.2804,-0.2783,-0.2746,-0.2732,-0.2699,-0.268,-0.2639,-0.2623,-0.2599,-0.2571,-0.2561,-0.2571,-0.2544,-0.2542,-0.255,-0.2558,-0.2572,-0.2574,-0.2554,-0.2554,-0.2554,-0.2562,0,-0.2977,-0.2938,-0.2902,-0.2875,-0.2852,-0.2813,-0.2795,-0.2762,-0.2735,-0.271,-0.2679,-0.2651,-0.2631,-0.2617,-0.2606,-0.2572,-0.2572,-0.2571,-0.2536,-0.2535,-0.2547,-0.2574,-0.2588,-0.2597,-0.2562,-0.2562,-0.2562,0,-0.2982,-0.2951,-0.2923,-0.2876,-0.2865,-0.2849,-0.2813,-0.279,-0.2753,-0.2733,-0.2708,-0.2679,-0.2655,-0.264,-0.2606,-0.2607,-0.259,-0.2572,-0.2571,-0.2566,-0.2549,-0.2569,-0.2599,-0.2601,-0.2563,-0.2563,-0.2563,0,-0.3017,-0.2968,-0.2945,-0.2928,-0.2873,-0.2863,-0.2839,-0.2801,-0.2782,-0.275,-0.2737,-0.2703,-0.2684,-0.2659,-0.2621,-0.2614,-0.2592,-0.2573,-0.2575,-0.2576,-0.2571,-0.2572,-0.2599,-0.2562,-0.2562,-0.2562,-0.2562,0,-0.3031,-0.3015,-0.296,-0.2946,-0.2927,-0.2887,-0.2869,-0.2842,-0.2809,-0.2789,-0.2754,-0.2735,-0.2688,-0.2664,-0.2635,-0.2612,-0.2604,-0.2587,-0.2579,-0.259,-0.2592,-0.2578,-0.2576,-0.2562,-0.2562,-0.2562,-0.2562,0,-0.3066,-0.3029,-0.3001,-0.2952,-0.2939,-0.2927,-0.2885,-0.287,-0.2841,-0.2816,-0.2807,-0.2762,-0.2732,-0.2693,-0.265,-0.2631,-0.2611,-0.26,-0.2624,-0.262,-0.2623,-0.2624,-0.2641,-0.2642,-0.2606,-0.2606,-0.2607,0,-0.3077,-0.3064,-0.3014,-0.2998,-0.2976,-0.2951,-0.2931,-0.2891,-0.2872,-0.2829,-0.2819,-0.2787,-0.2759,-0.2714,-0.2676,-0.2644,-0.2631,-0.264,-0.2626,-0.2637,-0.2631,-0.2632,-0.263,-0.2643,-0.2643,-0.2644,-0.2644,0,-0.31,-0.3083,-0.3056,-0.3023,-0.3001,-0.2973,-0.2944,-0.2933,-0.2887,-0.2867,-0.2837,-0.2815,-0.2773,-0.2741,-0.2705,-0.268,-0.2654,-0.2649,-0.2648,-0.2658,-0.2673,-0.2665,-0.2633,-0.2648,-0.2648,-0.2648,-0.2647,-0.2647,-0.3123,-0.311,-0.3073,-0.3045,-0.3019,-0.2992,-0.2976,-0.2946,-0.292,-0.2883,-0.2861,-0.2831,-0.2795,-0.2743,-0.272,-0.2696,-0.2686,-0.2684,-0.2683,-0.2683,-0.2687,-0.2677,-0.2689,-0.2689,-0.2689,-0.2689,-0.2689,0,-0.3144,-0.3119,-0.3094,-0.3054,-0.3032,-0.3011,-0.2978,-0.2961,-0.2936,-0.2904,-0.2878,-0.2844,-0.2813,-0.2775,-0.2742,-0.273,-0.2718,-0.2723,-0.2723,-0.2718,-0.2698,-0.2702,-0.2734,-0.2734,-0.2734,-0.2734,-0.2734,-0.2734,-0.3153,-0.313,-0.3109,-0.3073,-0.3047,-0.3019,-0.3002,-0.2977,-0.2952,-0.2916,-0.2891,-0.2866,-0.2832,-0.2796,-0.2768,-0.2757,-0.2747,-0.2755,-0.2741,-0.2723,-0.2719,-0.2715,-0.2719,-0.2753,-0.2753,-0.2763,-0.2763,-0.2763]},{"header":{"parameterUnit":"m.s-1","parameterCategory":1,"la1":30.2991,"la2":30.254,"lo1":-89.0895,"lo2":-89.0444,"dy":0.0017,"dx":0.0017,"nx":28,"ny":28,"refTime":"2024-07-24T03:00:00:Z","depth":0,"parameterNumber":3,"parameterNumberName":"V-component_of_WINDS"},"data":[0,0,0,0,0,0,0,0,0,0,0,0,0,0,0,0,0,0,0,0,0,0,0,0,0,0,0,0,0,0,0,0,0,0,0,0,0,0,0,0,0,0,0,0,0,0,0,0,0,0,0,0,0,0,0,0,0,0,2.1962,2.1961,0,2.1845,2.1844,2.1842,2.1828,2.1829,2.1831,2.1832,2.1705,2.1701,2.1697,0,0,0,0,0,0,0,0,0,0,0,0,0,2.2169,2.2166,2.1962,2.1961,2.1959,2.1845,2.1843,2.1842,2.1828,2.1829,2.1831,2.1832,2.1707,2.1702,2.1696,0,0,0,0,0,0,0,0,0,0,0,0,0,2.2068,2.2164,2.1963,2.1939,2.1936,2.1845,2.1843,2.1841,2.1828,2.1829,2.1831,2.1833,2.1709,2.1702,2.1696,2.1619,0,0,2.1675,2.1672,0,0,0,0,0,0,0,0,2.2074,2.2061,2.1944,2.194,2.1936,2.1853,2.187,2.1767,2.1827,2.1868,2.1832,2.1834,2.1753,2.1743,2.1716,2.1613,2.1608,2.1675,2.1671,2.1668,2.1666,0,0,0,0,0,0,0,2.2081,2.2066,2.1916,2.1942,2.1938,2.1932,2.192,2.1851,2.1802,2.1865,2.1864,2.185,2.1751,2.1723,2.1713,2.1606,2.1675,2.1669,2.1665,2.1662,2.1434,2.1432,0,0,0,0,0,0,2.2093,2.2072,2.1919,2.1912,2.2011,2.1927,2.1913,2.1878,2.1803,2.1793,2.1849,2.185,2.1734,2.1721,2.1709,2.1614,2.1668,2.1661,2.1658,2.1436,2.1433,2.1431,0,0,0,0,0,0,2.2098,2.208,2.1924,2.1991,2.1971,2.1922,2.1882,2.1875,2.1847,2.1791,2.1781,2.1829,2.1734,2.1718,2.1642,2.1609,2.1658,2.1652,2.1438,2.1435,2.1432,2.1423,0,0,0,0,0,0,2.2104,2.2082,2.2053,2.1991,2.1968,2.186,2.188,2.1871,2.1836,2.1836,2.177,2.1761,2.1735,2.1652,2.1635,2.1601,2.1647,2.1441,2.1437,2.1433,2.1426,2.142,2.1415,0,0,0,0,0,2.2111,2.2054,2.2052,2.2033,2.1931,2.1859,2.1845,2.1818,2.1833,2.1803,2.1768,2.1763,2.1616,2.1644,2.1625,2.1588,2.1443,2.1438,2.1433,2.1429,2.1421,2.1415,0,0,0,0,0,0,2.2111,2.2045,2.2042,2.1963,2.1917,2.1856,2.1818,2.1811,2.1758,2.176,2.1727,2.1712,2.1637,2.1605,2.1638,2.151,2.1531,2.1522,2.1534,2.1526,2.1521,2.1529,2.1642,0,0,0,0,0,2.2102,2.205,2.1995,2.1931,2.1908,2.1867,2.1834,2.1818,2.1768,2.1747,2.1706,2.1656,2.1598,2.1561,2.1505,2.1423,2.1407,2.1388,2.1382,2.1378,2.137,2.1323,2.1314,2.1416,2.1416,2.1416,0,0,2.2082,2.204,2.2009,2.193,2.1892,2.1837,2.185,2.1792,2.175,2.1738,2.1663,2.1631,2.1573,2.1493,2.1456,2.1464,2.1339,2.1372,2.1369,2.1363,2.1318,2.1308,2.1299,2.1413,2.1413,2.1414,0,0,2.2018,2.1982,2.1924,2.1887,2.183,2.1804,2.179,2.1731,2.1709,2.1635,2.1624,2.1574,2.1476,2.1435,2.1401,2.1324,2.1316,2.1306,2.1276,2.1231,2.1223,2.1216,2.1186,2.1177,2.1299,2.1299,2.1299,0,2.2,2.1919,2.1895,2.1837,2.1802,2.1791,2.1731,2.1695,2.1622,2.1598,2.1609,2.1487,2.1446,2.1357,2.1338,2.1312,2.1293,2.1312,2.1227,2.1219,2.1212,2.1183,2.1173,2.1298,2.1298,2.1298,2.1298,0,2.1899,2.1843,2.1803,2.1735,2.1696,2.1637,2.1603,2.1566,2.1553,2.1525,2.1449,2.1401,2.1335,2.1314,2.13,2.1221,2.1228,2.1234,2.1253,2.1201,2.1174,2.1163,2.1297,2.1297,2.1297,2.1298,0,0,2.1828,2.175,2.1735,2.1705,2.1642,2.1597,2.1538,2.1476,2.1444,2.1395,2.1343,2.1262,2.1267,2.1229,2.121,2.1171,2.1111,2.1181,2.1179,2.1168,2.102,2.1015,2.1003,2.1108,2.1105,2.1104,2.1025,0,2.1756,2.1652,2.1629,2.1538,2.1486,2.1475,2.1424,2.1379,2.1352,2.1302,2.1271,2.1213,2.1225,2.1201,2.1162,2.1127,2.1081,2.1133,2.1057,2.1054,2.1069,2.0989,2.0983,2.0911,2.1014,2.1012,2.1011,0,2.1656,2.1607,2.1512,2.1457,2.1434,2.1388,2.1329,2.1282,2.1231,2.1214,2.1173,2.1159,2.1096,2.112,2.1032,2.1067,2.1035,2.1014,2.101,2.1,2.1028,2.0975,2.0887,2.0876,2.0994,2.0995,2.0997,0,2.1612,2.1522,2.1453,2.1428,2.1362,2.133,2.1301,2.1252,2.1216,2.1165,2.1141,2.1082,2.1049,2.1003,2.0974,2.0995,2.0887,2.0909,2.0869,2.0869,2.0844,2.0846,2.0748,2.0827,2.0828,2.0828,2.0828,0,2.1532,2.1474,2.1433,2.139,2.1325,2.1299,2.1234,2.1205,2.1162,2.1112,2.11,2.1053,2.1018,2.0966,2.0943,2.0872,2.0858,2.0841,2.0835,2.084,2.0842,2.0817,2.082,2.0825,2.0826,2.0826,2.0827,0,2.1471,2.1441,2.1366,2.1311,2.1296,2.125,2.1202,2.116,2.1133,2.1071,2.1054,2.1012,2.095,2.0918,2.084,2.0824,2.0744,2.0742,2.0762,2.0759,2.072,2.0723,2.0601,2.0583,2.0676,2.0675,2.0674,0,2.142,2.1376,2.1317,2.1284,2.1255,2.1202,2.1166,2.1139,2.1102,2.1041,2.1006,2.0945,2.0893,2.0796,2.0756,2.0697,2.0692,2.0653,2.0682,2.069,2.0689,2.0691,2.0686,2.0647,2.0646,2.0646,2.0645,0,2.1334,2.1322,2.1272,2.1216,2.1174,2.1129,2.1084,2.1057,2.1023,2.0982,2.092,2.0881,2.0803,2.0741,2.0679,2.0647,2.0639,2.0637,2.0624,2.0628,2.0641,2.0632,2.0746,2.0639,2.0639,2.064,2.064,2.064,2.1275,2.1235,2.1187,2.1132,2.1096,2.1054,2.1012,2.0981,2.093,2.0866,2.0853,2.0787,2.0737,2.0653,2.062,2.0567,2.0575,2.0556,2.0551,2.0547,2.0544,2.0652,2.0556,2.0556,2.0556,2.0556,2.0556,0,2.1186,2.1156,2.1105,2.1044,2.1,2.1,2.095,2.0913,2.0856,2.0811,2.0762,2.0691,2.0631,2.0589,2.0528,2.0494,2.0488,2.0478,2.0479,2.0472,2.0542,2.0558,2.0483,2.0483,2.0483,2.0483,2.0483,2.0483,2.1134,2.1066,2.1049,2.0962,2.0932,2.0869,2.0841,2.0802,2.0766,2.0688,2.0639,2.0613,2.0568,2.0504,2.0449,2.0438,2.0416,2.0405,2.0394,2.0459,2.0467,2.0474,2.0489,2.0401,2.0401,2.0328,2.0327,2.0326]}]]